This demonstration page uses our WeatherBlox Daily Observations layout. Learn more.

Left ArrowRight Arrow

36.17497, -115.13722

Hourly Observations for March 26, 2016

Temp ( °F °C ) Dew Point ( °F °C ) Humidity (%) Winds ( mph kmh ) Pressure ( in mb ) Visibility ( mi km ) Precip ( " mm )
12:53 am 00:53 Clear 68 20 8 -13.3 9 9 NNW 16 26 29.75 1007 10 16.0934 0 0
1:53 am 01:53 Clear 67 19.4 10 -12.2 11 11 NNW 21 33 29.76 1008 10 16.0934 0 0
2:53 am 02:53 Clear 65 18.3 10 -12.2 11 11 NNW 17 28 29.78 1008 10 16.0934 0 0
3:53 am 03:53 Clear 64 17.8 10 -12.2 12 12 NNW 16 26 29.78 1009 10 16.0934 0 0
4:53 am 04:53 Clear 63 17.2 8 -13.3 11 11 N 15 24 29.83 1010 10 16.0934 0 0
5:53 am 05:53 Clear 60 15.6 7 -13.9 12 12 NNW 16 26 29.87 1012 10 16.0934 0 0
6:53 am 06:53 Sunny 58 14.4 8 -13.3 13 13 N 20 31 29.91 1013 10 16.0934 0 0
7:53 am 07:53 Sunny 58 14.4 12 -11.1 16 16 NNE 21 33 29.98 1015 10 16.0934 0 0
8:53 am 08:53 Sunny 60 15.6 15 -9.4 17 17 NNW 31 50 30 1016 10 16.0934 0 0
9:53 am 09:53 Sunny 61 16.1 14 -10 16 16 NNW 25 41 30.03 1017 10 16.0934 0 0
10:53 am 10:53 Sunny 64 17.8 8 -13.3 11 11 N 13 20 30.05 1018 10 16.0934 0 0
11:53 am 11:53 Sunny 65 18.3 4 -15.6 9 9 N 12 19 30.05 1018 10 16.0934 0 0
12:53 pm 12:53 Sunny 67 19.4 6 -14.4 9 9 NNE 16 26 30.03 1017 10 16.0934 0 0
1:53 pm 13:53 Sunny 67 19.4 5 -15 8 8 ESE 10 17 30.01 1016 10 16.0934 0 0
2:53 pm 14:53 Sunny 67 19.4 4 -15.6 8 8 ESE 10 17 30.01 1016 10 16.0934 0 0
3:53 pm 15:53 Sunny 68 20 8 -13.3 9 9 E 17 28 29.99 1016 10 16.0934 0 0
4:53 pm 16:53 Sunny 67 19.4 9 -12.8 10 10 ESE 15 24 29.99 1016 10 16.0934 0 0
5:53 pm 17:53 Sunny 66 18.9 9 -12.8 10 10 ESE 10 17 30.01 1016 10 16.0934 0 0
6:53 pm 18:53 Sunny 64 17.8 9 -12.8 11 11 E 10 17 30.01 1016 10 16.0934 0 0
7:53 pm 19:53 Clear 63 17.2 11 -11.7 13 13 ESE 5 7 30.02 1017 10 16.0934 0 0
8:53 pm 20:53 Clear 63 17.2 13 -10.6 14 14 Calm 30.04 1017 10 16.0934 0 0
9:53 pm 21:53 Clear 59 15 15 -9.4 18 18 SW 6 9 30.06 1018 10 16.0934 0 0
10:53 pm 22:53 Clear 56 13.3 17 -8.3 22 22 N 6 9 30.06 1018 10 16.0934 0 0
11:53 pm 23:53 Clear 54 12.2 17 -8.3 23 23 NW 6 9 30.06 1018 10 16.0934 0 0

Powered by AerisWeather